Location: Newark
(48.8604°N, 2.3376°E)
Time: 23:24:44
(UTC+00:00)

XW-2C - Pass Details

Date: 09 December 2021
Orbit: 503 x 524 km, 97.5° (Epoch: 19 January)

Event Time Altitude Azimuth Distance (km) Brightness Sun altitude
Rises 05:34:26 0° 18° (NNE) 2,673 ? -18.4°
Reaches altitude 10° 05:36:38 10° 25° (NNE) 1,779 ? -18.0°
Maximum altitude 05:40:20 45° 99° (E) 724 ? -17.4°
Drops below altitude 10° 05:43:59 10° 173° (S) 1,760 ? -16.8°
Sets 05:46:08 0° 180° (S) 2,641 ? -16.5°
